Погода в Гамприне

Лихтенштейн     47°13′06″N   9°30′38″E
темп.,
°C
ветер,
м/с
пор.,
м/с
влажн.,
%
обл.,
%
осадки,
мм/ч
давл.,
гПа
погр.,
м
21 января, пт
пт2101:00−5ссв1298100 2.9 103375
04:00−6юз119899 0.4 103317
07:00−7ю019898 0.8 103416
10:00−5вюв118999 0.1 1034402
13:00−4ссв228099 0.2 1034743
16:00−4ссв128340 0.1 1034408
19:00−9ююз22958 0.1 103819
22:00−10ююз23936 0.0 103951
22 января, сб
сб2201:00−10ю34875 0.0 103975
04:00−10ю35835 0.0 103986
07:00−8ю347890 0.0 103882
10:00−4ю247284 0.0 1037137
13:000ю117617 0.0 1035310
16:00−1ссв129422 0.0 103555
19:00−4ю229747 0.0 103737
22:00−5ю22946 0.0 103835
23 января, вс
вс2301:00−6ю32926 0.0 103739
04:00−7ю22926 0.0 103733
07:00−7ю33919 0.0 103642
10:00−3ю22805 0.0 103597
13:00+1св11775 0.0 1032319
16:00−1ссв11946 0.0 103343
19:00−5ююз229617 0.0 103422
22:00−6ю22936 0.0 103531
24 января, пн
пн2401:00−6ю22875 0.0 103438
04:00−6ю22844 0.0 103435
07:00−6ююз22844 0.0 103432
10:00−2ю12710 0.0 103373
13:00+1ссв11731 0.0 1032200
16:000с11915 0.0 103324
19:00−4ююз22956 0.0 103620
22:00−4ююз22915 0.0 103728
25 января, вт
вт2501:00−5ююз22875 0.0 103722
04:00−5ююз22844 0.0 103736
07:00−6ююз22885 0.0 103823
10:00−1ююз01731 0.0 103775
13:00+1ссв21765 0.0 1036272
16:00−1ссв11917 0.0 103744
19:00−4ююз119860 0.0 103946
22:00−3ю119485 0.0 1039101